GFSGBSN_250_rhum_147.txt.gz
RH
28 21 26 48 52 52 27 56 69 62 89 100 69 100 100 100 63 42 23 23 40 24 27 20 24 35 56 63 60 62 75 92 100 85 73 86 92 93 100 100 96 100 100 96 92 67 79
22 23 24 53 47 71 57 27 41 66 51 67 100 95 100 79 64 44 45 25 27 33 30 26 26 28 29 41 73 70 74 86 89 100 97 100 100 95 100 86 86 100 100 100 94 87 82
29 28 26 40 78 39 89 32 30 68 54 57 65 100 100 93 99 83 75 57 28 37 41 36 35 32 34 37 34 70 80 71 65 66 78 83 76 97 100 99 100 100 100 83 80 88 92
41 29 37 30 65 74 49 70 61 47 31 47 68 88 97 100 100 100 89 63 42 33 40 65 38 36 40 48 45 31 36 58 55 64 65 63 62 64 64 83 99 88 95 100 100 100 98
53 32 46 90 99 75 98 96 100 100 93 31 48 84 77 88 100 76 46 68 30 42 35 53 59 58 62 65 62 54 42 36 46 53 54 56 54 55 60 67 98 100 100 100 82 91 88
59 48 34 48 29 70 94 69 83 64 92 70 29 41 64 49 80 89 51 42 33 33 61 72 99 87 80 89 80 66 71 46 42 56 55 58 60 55 59 52 87 100 100 98 89 79 69
54 79 45 60 47 32 60 38 40 47 37 72 36 40 31 27 31 37 81 38 30 33 51 84 97 98 92 92 76 90 67 95 89 65 52 69 71 70 71 79 97 100 100 100 94 72 62
87 77 72 71 71 76 50 51 63 54 79 60 38 54 36 37 35 28 56 81 43 40 40 51 100 100 100 90 78 76 65 72 100 100 91 72 71 80 81 81 95 91 87 89 96 92 92
100 99 97 94 87 100 84 83 79 71 88 100 67 63 61 55 54 43 34 48 57 47 47 78 100 100 100 98 83 80 83 75 91 100 100 87 76 91 100 100 100 100 96 100 97 100 93
100 100 100 100 100 100 99 100 96 90 70 100 97 83 77 66 69 67 63 65 71 97 82 99 100 100 100 100 97 88 65 66 63 80 97 96 95 99 100 100 100 100 100 100 100 100 94
100 100 100 100 100 100 100 100 93 85 100 100 97 100 100 91 89 98 86 100 100 100 94 100 100 100 100 100 92 71 72 66 68 75 95 100 92 100 100 100 100 100 100 100 98 85 75
94 96 100 100 100 100 100 100 100 99 100 100 100 100 100 96 100 100 90 100 100 100 99 100 100 100 100 100 91 70 76 85 81 86 96 100 97 76 97 100 100 100 100 100 100 99 85
66 82 79 87 91 91 95 100 100 100 100 100 100 100 100 100 100 100 100 100 100 100 100 100 100 96 84 86 80 84 87 91 100 100 82 84 99 87 66 75 77 78 75 75 81 80 78
36 41 48 58 69 78 80 85 87 92 100 97 100 100 100 100 96 93 100 100 100 100 100 100 83 73 70 70 70 62 78 100 90 97 94 71 84 85 88 76 66 61 61 58 64 63 60
41 40 53 54 64 71 68 70 62 88 87 97 91 93 87 83 69 74 90 92 95 100 99 88 89 63 64 93 92 100 92 77 99 87 67 72 78 94 91 82 78 89 92 77 63 60 58
32 34 50 63 61 66 72 75 83 74 95 90 84 81 76 61 76 75 79 93 98 100 96 100 94 100 100 100 100 98 80 83 100 100 100 89 73 82 88 85 86 72 76 78 69 60 59
28 27 33 42 41 53 54 78 76 69 93 86 87 86 87 79 88 94 100 100 100 100 99 88 93 94 98 90 75 73 80 89 100 100 94 75 65 85 78 67 57 58 55 52 53 48 40
23 24 27 28 29 33 43 60 72 75 99 77 59 76 82 69 97 98 100 100 100 100 92 97 91 95 95 86 86 81 95 98 86 84 87 76 54 61 59 58 65 57 46 42 44 47 38
15 17 20 22 22 24 35 40 42 54 69 72 60 66 62 64 79 97 99 95 85 93 96 87 81 86 99 92 78 78 86 80 63 69 67 75 50 47 42 54 46 40 36 31 29 30 31
13 15 14 17 19 21 21 22 31 37 50 50 62 60 73 72 87 96 89 92 91 92 92 86 91 93 84 80 69 78 75 68 70 74 59 43 30 22 20 22 25 22 20 23 22 20 19
12 13 14 15 15 16 20 19 19 23 26 26 34 41 48 52 68 80 70 85 88 93 96 94 82 80 75 72 61 57 49 68 50 36 36 21 20 17 18 23 22 21 22 22 21 20 18
11 13 14 14 15 16 16 18 19 17 17 19 23 26 35 47 54 55 55 75 72 72 74 77 70 63 71 76 35 47 73 33 30 22 19 14 15 20 22 17 21 25 28 20 19 17 21
10 11 13 14 15 16 16 17 17 16 16 19 21 20 24 36 47 56 64 72 70 70 65 53 46 59 77 37 32 49 35 28 22 21 16 24 24 22 20 17 22 37 20 23 32 31 28
9 11 13 14 15 16 15 16 17 16 17 18 20 22 26 40 41 52 54 62 56 46 42 45 46 59 39 31 35 27 25 22 24 21 19 20 16 16 19 18 34 32 29 46 47 58 60
8 9 11 13 14 15 16 16 18 15 17 18 24 23 27 29 36 38 47 42 39 36 35 45 41 26 22 28 26 28 32 26 22 19 15 16 18 20 29 34 42 35 63 78 96 99 96
7 8 10 12 14 15 16 17 17 17 18 18 20 21 25 28 39 42 32 31 28 37 45 45 30 23 27 29 30 32 27 28 23 21 17 21 25 40 40 45 41 52 87 90 99 97 95
7 8 9 11 14 16 17 18 17 17 17 19 20 21 22 25 37 36 33 28 37 36 48 35 28 37 28 29 34 38 40 42 35 29 28 30 33 42 46 57 50 92 99 100 95 98 100
6 7 9 11 13 14 16 16 16 16 17 19 20 20 22 26 45 30 25 33 35 42 45 34 39 33 35 37 47 53 71 52 37 32 32 38 38 43 58 82 78 96 100 88 99 100 100
7 8 9 10 11 12 14 15 15 15 18 20 19 20 23 26 42 27 30 35 35 29 39 45 36 34 50 68 69 68 76 54 42 42 44 50 56 80 88 96 96 89 95 98 99 100 100

GFSGBSN_250_rhum_150.txt.gz
RH
32 23 20 19 26 28 28 23 28 73 73 52 32 54 73 76 100 100 100 100 100 73 64 61 39 32 32 30 26 30 34 38 38 50 53 45 55 74 81 69 71 68 68 100 84 71 68
26 31 26 20 22 25 26 22 21 49 98 86 54 33 75 76 72 99 100 100 100 91 100 97 78 46 31 26 28 32 33 39 47 48 36 54 57 58 60 46 83 94 90 84 99 67 67
38 30 33 24 23 30 27 26 20 33 73 86 52 37 32 33 36 56 100 100 100 100 100 100 73 70 44 41 35 33 36 38 55 59 66 42 35 45 50 54 77 78 78 83 75 90 100
37 36 34 29 28 36 35 30 27 22 53 90 73 46 64 41 37 47 50 38 79 96 98 100 100 64 37 31 37 51 73 73 82 85 78 74 54 36 36 44 55 58 59 65 64 66 58
47 43 38 30 38 45 30 34 36 31 26 55 61 60 95 93 95 42 37 30 29 40 70 53 71 90 50 42 26 50 35 55 58 67 87 80 64 61 51 50 41 43 53 51 49 63 74
44 54 41 41 46 40 37 36 36 41 40 74 52 64 95 77 100 52 62 43 27 25 26 35 33 58 90 67 36 32 44 43 54 72 94 92 70 60 49 58 90 68 57 71 64 59 62
50 57 52 56 75 77 49 40 42 50 41 43 42 31 39 43 36 41 43 48 29 32 27 26 35 36 55 74 80 60 48 40 76 92 88 95 72 61 56 56 61 86 78 71 93 84 75
78 85 72 76 88 87 66 67 46 47 56 42 48 48 44 49 42 44 63 72 65 33 49 39 41 39 29 46 81 84 56 84 100 100 98 85 84 81 73 68 65 73 67 67 69 99 94
100 94 100 83 95 100 80 79 80 77 74 94 65 73 98 100 65 65 65 64 98 97 52 55 45 64 52 43 71 86 100 100 100 98 100 100 99 93 76 59 69 68 92 94 76 82 100
100 100 100 100 100 100 80 99 93 88 99 97 99 74 87 100 93 93 86 98 72 100 99 77 78 73 94 90 96 98 94 83 99 100 100 100 100 100 90 79 74 80 94 100 99 85 99
100 100 100 100 100 100 100 100 100 100 100 100 100 100 100 100 100 90 100 91 86 97 78 88 86 100 95 100 98 78 100 100 100 100 100 100 100 100 100 91 86 82 98 100 100 100 99
98 100 100 100 100 92 100 100 100 100 100 100 100 100 100 100 100 100 100 100 98 100 95 93 100 100 97 98 100 100 100 100 100 100 100 100 100 100 97 96 100 98 96 99 92 92 96
100 100 100 100 100 100 100 100 100 100 100 100 100 100 100 100 100 100 100 100 100 96 99 100 100 100 100 100 100 100 100 100 100 100 100 100 100 98 97 97 85 86 93 84 86 82 72
85 100 100 100 100 100 100 100 100 100 100 100 94 100 100 100 100 100 100 100 100 100 100 100 100 100 100 100 100 100 100 100 100 100 94 85 88 88 80 73 68 68 67 76 74 68 58
46 48 57 56 51 67 95 99 96 93 82 84 94 94 100 100 100 100 100 100 100 100 100 100 100 100 100 100 99 96 85 97 100 98 94 81 81 82 88 86 86 81 98 83 83 79 76
39 42 44 53 55 50 52 51 56 64 72 79 96 88 85 100 89 99 100 100 100 100 100 100 100 98 100 96 90 84 96 100 100 100 98 90 90 99 100 96 91 85 75 84 86 88 80
58 57 66 60 61 62 58 55 50 55 64 57 88 75 85 96 79 98 83 88 100 97 100 100 100 100 98 98 90 75 98 100 100 95 84 77 69 69 84 82 82 72 71 75 78 69 58
46 48 54 60 67 76 83 87 84 78 60 51 58 68 86 93 86 100 94 90 100 100 100 100 100 98 94 100 97 82 90 88 95 97 93 71 61 61 70 78 66 65 72 58 61 57 53
25 30 35 39 41 54 66 75 92 95 94 86 70 49 62 66 93 98 97 92 93 99 88 84 88 93 94 90 84 93 82 80 67 69 58 75 59 61 65 61 69 44 46 48 56 51 45
12 14 15 20 26 32 40 48 62 74 78 75 70 50 37 37 44 70 64 67 82 89 80 72 58 69 60 59 72 72 66 72 64 63 60 65 77 65 55 44 42 53 47 42 30 21 17
11 11 12 14 18 20 24 26 35 31 30 37 47 33 33 31 35 43 42 50 83 76 49 49 56 56 58 70 66 62 60 69 84 82 72 65 59 33 33 33 29 26 22 17 15 14 15
10 11 12 12 12 13 15 15 17 17 20 21 25 27 30 30 32 31 28 41 48 45 56 61 53 50 56 64 48 57 54 65 70 77 66 31 24 24 26 20 16 18 15 12 15 20 25
7 8 10 11 11 13 14 14 15 16 16 18 20 24 26 26 28 25 25 25 23 25 40 37 39 47 54 46 48 52 45 56 65 57 23 23 24 20 23 16 18 27 14 23 27 27 25
6 6 8 10 11 13 14 15 16 16 16 18 20 20 22 22 23 25 26 25 28 28 38 40 51 54 42 43 36 32 48 66 51 22 28 25 18 18 29 25 35 28 32 29 26 32 47
6 6 7 9 11 12 14 15 15 16 17 18 20 19 21 22 22 22 24 28 32 47 52 51 61 53 43 40 32 34 42 52 24 33 24 20 23 26 32 31 36 29 31 36 54 81 91
5 6 6 7 9 12 14 15 16 16 16 17 19 20 20 22 23 26 37 49 58 50 45 48 40 34 36 33 32 46 57 29 34 25 29 33 26 41 35 32 28 37 51 81 98 97 100
5 6 6 7 9 12 14 15 16 17 17 18 19 19 20 21 30 40 56 52 46 44 41 36 35 34 34 40 38 38 38 28 45 42 50 32 40 43 36 33 35 56 82 100 100 100 100
5 6 6 9 10 11 12 14 15 16 17 19 20 19 20 27 46 47 38 32 37 41 40 34 41 39 38 45 35 38 29 39 55 57 44 37 45 35 39 34 43 83 99 99 100 100 100
6 7 8 9 10 11 12 13 14 15 17 19 20 20 21 26 51 41 37 34 24 32 44 46 47 42 45 42 40 38 46 70 72 47 44 43 39 36 37 47 80 98 100 100 100 100 100

GFSGBSN_250_rhum_156.txt.gz
RH
57 36 50 26 26 26 31 35 31 45 47 45 45 49 34 34 26 32 92 59 69 100 100 97 100 100 100 100 100 100 100 100 98 82 83 63 45 40 29 31 57 41 22 21 26 38 33
37 43 38 56 28 29 33 35 36 40 45 47 50 58 57 43 32 29 58 100 92 50 51 88 100 100 100 100 100 100 100 82 45 41 48 55 56 56 44 38 73 33 22 21 19 25 34
38 40 49 50 30 32 35 38 43 49 47 49 44 51 47 51 43 29 34 36 85 89 67 46 65 73 81 100 100 100 86 39 44 35 32 38 35 58 56 49 50 38 26 26 25 21 23
72 41 33 52 31 38 38 44 48 44 45 51 40 46 45 46 44 31 30 31 43 86 100 92 59 50 73 72 66 68 54 32 31 28 24 26 26 24 25 40 56 50 44 40 48 52 40
25 34 38 30 36 37 37 44 38 40 45 50 60 38 41 39 37 24 27 34 35 35 72 100 95 74 78 91 89 76 69 29 24 29 23 24 22 24 23 25 27 33 41 46 62 79 54
47 45 51 52 42 51 55 54 47 46 47 45 40 57 30 37 38 32 25 32 36 33 32 47 50 70 75 68 98 68 61 50 52 48 38 35 36 34 34 32 29 37 36 32 42 45 56
62 64 41 62 63 80 35 63 50 55 54 63 50 40 60 29 35 42 26 25 31 26 31 36 33 38 41 50 31 44 59 52 47 61 55 55 67 53 64 50 50 42 42 46 62 68 65
69 80 75 62 61 38 59 49 62 59 52 60 48 50 56 44 36 32 44 28 28 26 26 36 32 40 50 35 34 34 39 58 62 70 72 72 79 86 90 88 74 76 77 76 91 100 91
79 78 88 52 65 53 59 81 64 84 82 65 53 52 60 65 55 41 38 45 38 41 29 30 33 37 38 40 48 57 62 63 76 86 91 84 91 100 91 92 99 83 81 81 97 100 100
95 100 82 100 93 69 76 79 80 74 73 58 74 62 66 89 77 80 52 56 50 59 53 52 48 39 48 66 62 62 58 85 100 100 100 100 100 100 99 87 81 93 100 100 98 80 100
100 100 100 100 100 96 97 100 100 100 100 99 76 96 68 100 100 100 100 97 84 83 81 100 100 100 100 100 82 94 97 83 63 86 99 100 100 98 100 100 100 100 95 100 99 100 95
100 100 100 100 100 100 100 100 89 100 100 100 100 97 98 99 100 100 100 98 100 100 95 79 86 95 100 100 100 100 100 100 100 100 100 100 100 100 100 100 100 100 100 100 100 100 100
100 100 100 94 100 100 100 100 100 100 100 100 97 100 100 99 93 100 100 100 100 93 100 100 96 87 99 100 100 93 100 100 100 100 100 100 100 100 100 100 100 100 100 100 100 100 100
100 100 100 100 100 100 100 100 100 100 99 100 100 99 98 100 98 100 100 100 100 100 100 100 93 100 100 100 98 87 94 86 100 100 99 100 100 100 100 100 100 100 100 100 94 100 100
83 69 91 99 100 100 100 100 100 99 100 100 100 100 100 100 88 100 100 100 100 100 100 100 100 100 100 100 100 100 100 100 100 100 100 100 100 100 100 100 100 100 100 100 100 100 100
83 79 81 71 66 68 66 87 100 100 100 100 100 100 100 100 100 100 100 100 100 100 100 100 100 100 100 100 100 100 100 100 100 100 100 100 100 100 100 100 100 100 100 99 83 78 74
84 92 91 87 80 77 70 80 86 80 79 79 86 80 83 100 100 100 97 92 97 100 100 100 80 76 100 100 100 100 100 100 100 100 100 100 100 100 100 100 100 100 86 99 80 76 71
72 73 75 81 76 76 77 85 100 79 75 93 79 65 72 69 78 93 72 65 74 76 88 73 75 66 75 76 68 83 78 78 82 90 82 100 100 98 100 100 98 100 100 93 74 76 62
57 61 61 68 66 68 66 74 92 91 83 91 76 78 72 73 81 76 70 76 81 80 89 84 84 71 59 47 50 54 52 63 63 64 61 67 70 83 98 91 86 97 88 87 86 64 52
35 39 44 45 47 60 74 81 83 91 94 91 72 71 80 87 90 91 85 91 92 88 87 81 79 68 63 62 61 64 66 70 68 80 73 62 66 67 66 54 88 80 77 64 61 46 36
15 18 21 26 30 38 52 63 71 79 86 96 86 79 88 87 91 89 89 94 99 87 85 79 76 80 75 78 76 82 82 86 95 96 88 80 66 41 31 48 58 49 44 49 41 32 35
9 10 12 15 18 24 29 38 37 51 61 74 50 77 90 97 94 97 98 98 95 94 88 80 78 88 78 63 68 69 78 92 91 79 54 41 33 32 40 42 41 36 47 39 32 41 31
8 9 10 11 12 13 16 18 17 18 17 27 35 43 55 78 76 82 97 94 89 86 71 68 53 40 48 63 61 63 61 60 45 37 32 29 26 27 35 28 22 36 38 44 31 34 30
5 7 8 10 11 12 13 14 14 14 15 16 16 19 23 27 37 52 50 41 43 41 28 25 27 37 47 39 41 44 36 33 30 30 27 26 28 24 30 28 31 53 44 34 31 35 28
4 4 5 8 10 11 12 13 14 14 14 16 18 20 19 18 18 19 21 22 21 20 23 27 30 29 30 32 30 29 30 27 25 31 35 39 33 27 35 40 59 44 29 26 32 29 28
4 4 4 6 8 10 12 12 14 12 13 15 16 16 16 17 17 17 19 20 21 22 24 26 24 27 26 27 28 30 31 28 36 44 60 50 44 35 38 55 55 29 28 35 34 29 32
3 3 4 5 6 8 10 12 12 14 13 14 15 16 16 16 17 19 20 21 22 22 24 24 25 25 24 29 28 30 34 34 55 57 58 46 30 44 53 39 42 28 58 41 32 37 62
4 4 4 5 5 6 8 10 9 11 11 12 14 14 16 18 18 19 20 22 22 23 23 23 25 29 30 32 37 37 63 53 62 55 46 33 45 63 47 48 49 59 50 44 44 66 81
3 5 5 5 5 6 7 9 9 10 11 12 12 14 15 16 19 21 21 22 22 21 25 28 32 37 34 43 49 65 82 70 52 40 40 46 62 63 57 66 62 64 48 54 63 83 100

GFSGBSN_250_rhum_159.txt.gz
RH
25 22 22 24 44 83 96 100 59 50 62 54 30 37 59 46 47 42 45 49 42 30 72 72 82 100 100 100 100 100 98 98 100 100 100 79 73 63 39 44 43 48 42 44 51 45 27
23 22 25 29 33 38 72 83 49 44 59 55 33 38 42 49 50 61 49 48 48 39 36 96 99 84 100 100 100 100 100 100 100 100 100 80 49 52 32 30 31 26 27 30 59 52 43
27 25 29 28 39 39 54 82 68 57 51 55 37 44 44 50 51 54 62 55 45 45 33 34 78 64 61 85 96 100 100 100 100 100 82 71 44 28 27 25 27 22 23 22 24 40 44
27 32 29 35 51 50 46 80 62 44 42 45 44 39 45 53 44 48 60 59 57 51 41 30 30 68 99 62 70 93 83 91 96 81 90 73 41 33 24 28 22 25 22 27 28 28 29
28 35 34 33 48 63 51 72 52 37 40 53 41 48 48 50 48 46 46 55 56 43 49 38 28 29 43 64 61 74 75 92 100 100 100 99 71 32 39 40 38 37 36 35 39 51 44
56 49 38 36 40 46 41 55 68 40 48 57 47 59 56 67 63 52 46 46 49 52 39 38 36 26 30 32 32 40 51 50 66 47 36 30 43 38 35 44 53 51 53 76 70 90 100
47 44 46 39 40 38 36 51 54 38 38 57 73 73 64 68 70 62 58 51 42 52 49 36 38 42 27 31 31 30 30 31 30 46 49 30 25 33 51 48 56 68 76 84 100 100 65
59 50 39 59 74 46 42 46 61 48 47 34 75 49 45 52 57 59 51 43 58 39 56 55 36 41 26 25 29 30 27 31 32 34 37 37 38 46 58 76 86 99 100 100 100 100 100
85 54 83 75 65 71 72 79 62 66 60 43 36 42 38 40 49 54 71 82 41 51 39 54 38 32 42 30 24 28 29 29 32 36 47 46 46 60 54 77 94 100 64 60 72 93 99
71 86 79 92 82 80 93 87 64 67 99 74 74 71 69 45 57 75 53 58 40 41 31 53 63 57 36 47 38 39 44 30 34 46 46 89 97 82 80 100 92 100 73 41 50 57 77
81 84 100 100 100 94 100 100 100 78 80 100 100 80 93 100 65 60 69 99 66 58 38 42 44 78 100 81 69 68 73 71 100 97 99 100 100 100 100 100 100 96 97 97 97 92 87
100 100 100 100 100 100 74 100 100 100 84 80 100 100 84 100 100 82 79 90 62 79 76 60 69 61 56 92 100 100 95 100 100 100 96 100 100 91 100 100 100 100 84 97 98 95 100
100 100 100 100 100 100 100 95 100 100 100 100 100 100 100 91 100 96 100 97 98 94 89 100 81 96 94 74 94 100 97 92 90 100 99 90 100 94 76 75 82 92 75 80 83 91 90
100 100 100 100 100 100 100 100 100 100 100 100 100 100 100 100 100 100 90 100 96 97 100 100 100 100 98 98 98 100 100 100 100 100 100 98 96 100 94 80 72 87 89 98 100 100 100
100 100 100 100 100 100 100 100 100 100 98 100 100 100 100 100 100 100 100 96 100 99 100 100 100 73 99 100 81 77 96 84 99 100 100 100 100 100 82 90 96 100 100 100 100 100 100
100 100 100 100 100 100 100 100 96 72 82 78 68 86 100 100 98 99 97 99 100 100 100 100 100 100 94 100 100 97 100 89 93 95 97 99 94 100 100 100 100 100 100 100 100 100 100
95 94 98 90 80 78 78 74 79 95 95 89 92 90 91 89 77 74 69 86 96 100 100 100 100 98 100 100 95 94 100 100 98 98 83 68 58 68 78 82 100 100 87 100 100 100 100
79 78 82 88 82 78 76 79 98 100 99 100 99 87 99 85 74 94 85 73 85 78 76 88 96 90 71 80 92 82 65 60 71 62 54 62 62 63 64 65 53 47 70 71 71 68 75
76 64 64 69 79 76 82 89 97 96 88 100 98 94 86 73 63 90 80 98 94 80 67 70 68 59 58 70 55 63 62 60 60 57 56 66 56 57 58 64 68 67 75 71 80 82 70
62 47 40 42 49 55 62 77 81 86 99 96 92 81 82 75 80 80 91 89 85 85 78 78 79 86 89 77 76 87 76 76 70 43 53 58 69 75 67 73 75 84 80 86 92 76 69
15 15 21 30 35 33 38 47 50 59 67 63 56 58 72 77 88 94 91 92 88 89 92 90 83 85 79 70 71 73 75 72 76 81 78 75 73 79 72 79 80 83 89 90 59 41 26
11 11 12 12 15 17 19 21 24 33 41 27 29 46 53 64 77 76 85 87 86 100 91 93 92 93 86 78 80 75 84 93 95 85 86 74 48 60 72 66 65 48 52 45 25 23 21
6 7 8 9 10 11 12 14 17 23 29 18 22 26 22 35 50 54 71 84 90 84 79 85 93 91 88 88 89 99 94 92 93 78 47 47 68 53 53 47 37 39 39 22 23 28 35
4 4 5 5 6 7 9 11 12 14 14 16 18 16 16 17 19 26 32 44 48 60 64 78 73 90 94 84 100 92 76 63 41 36 46 49 40 39 37 31 28 33 26 26 33 52 36
3 4 4 5 5 6 7 8 9 11 12 13 14 14 15 16 16 19 22 21 21 23 28 33 44 51 54 63 80 44 38 27 30 36 36 33 33 31 30 24 28 49 28 43 53 46 44
3 3 3 4 4 5 6 8 9 11 12 13 12 14 13 14 15 15 15 18 18 20 20 25 30 34 29 29 31 25 26 29 34 36 33 32 31 29 24 24 47 44 57 38 37 39 26
3 3 3 3 4 4 5 7 8 10 12 12 14 13 12 14 14 15 17 19 18 18 20 20 19 20 21 24 25 29 33 32 36 39 39 35 26 32 29 37 59 55 61 31 36 38 36
3 3 3 3 3 4 5 6 8 10 12 13 14 13 13 13 14 18 18 18 18 18 18 20 20 21 23 28 32 34 36 33 40 42 37 43 36 39 46 58 64 48 39 39 48 40 45
3 3 4 3 3 4 5 6 8 10 12 13 12 13 13 15 19 18 18 17 17 17 18 19 21 22 26 29 32 32 33 37 43 54 46 55 45 61 60 67 51 35 42 64 60 43 57

GFSGBSN_250_rhum_162.txt.gz
RH
100 99 79 83 67 36 44 43 29 27 28 37 50 92 99 86 62 65 50 47 48 58 47 45 48 40 59 56 66 65 54 91 100 100 100 96 100 100 100 71 60 46 37 32 36 34 27
47 49 42 43 41 27 30 32 38 32 31 37 60 59 87 68 69 63 59 45 56 58 56 50 40 48 41 79 100 100 100 79 100 100 100 100 100 100 100 81 57 48 37 26 28 23 22
28 28 24 27 29 30 29 34 41 39 42 41 72 87 64 87 55 55 52 53 50 60 49 50 49 36 39 37 58 76 100 100 100 98 100 100 100 100 100 97 47 67 32 26 24 25 28
25 23 27 31 36 44 38 36 42 40 44 46 58 71 65 79 58 48 51 58 58 60 58 59 57 43 48 46 38 35 96 100 88 100 100 100 100 100 99 95 68 69 51 33 33 35 35
25 25 26 31 33 41 47 51 40 43 46 40 50 56 65 80 76 58 59 69 74 75 74 68 60 51 51 54 43 41 33 46 76 80 90 86 82 95 100 77 45 41 38 30 56 39 42
33 30 27 25 36 29 38 41 42 34 42 34 40 43 54 74 77 66 63 75 96 83 72 82 60 64 58 68 59 49 42 40 34 33 33 47 60 48 54 51 54 28 26 34 39 46 58
47 48 32 35 37 33 33 31 41 39 31 32 29 36 30 52 73 81 60 56 86 58 69 64 70 55 63 57 72 62 59 44 38 34 33 35 35 33 31 35 38 37 32 33 39 59 68
70 59 47 39 49 43 50 40 45 41 31 34 37 32 33 35 35 50 42 36 76 63 39 56 55 61 56 53 72 66 55 57 50 48 35 30 30 36 36 31 32 36 44 37 41 64 86
77 64 66 60 44 44 46 60 42 56 63 38 36 64 53 42 43 38 66 37 34 33 34 36 59 55 61 70 56 69 61 58 54 42 39 28 26 29 36 48 60 53 42 51 79 100 100
78 88 85 89 71 56 67 89 64 68 71 59 75 72 82 58 96 49 44 56 83 68 34 43 36 42 57 67 51 46 41 54 72 64 38 31 42 32 37 37 45 61 66 79 77 69 70
91 90 92 96 95 94 78 100 89 84 73 55 71 88 99 74 56 76 94 83 72 77 62 45 88 60 48 37 64 83 51 34 51 49 72 67 61 70 58 42 43 64 64 69 71 59 53
100 100 100 100 100 100 91 96 100 84 86 86 82 97 100 100 99 88 77 81 100 94 52 70 79 88 90 84 52 50 64 70 58 62 59 54 64 43 50 84 93 85 86 87 86 66 62
100 100 100 100 100 100 100 100 100 100 99 100 100 100 100 100 100 98 100 100 96 100 100 76 96 92 85 82 90 82 94 93 77 79 82 75 96 74 72 59 86 86 70 90 100 97 100
100 100 100 100 100 100 100 100 100 100 95 100 100 100 100 100 100 85 100 100 100 94 100 100 100 100 100 100 100 100 100 100 94 99 99 100 100 100 100 97 87 98 100 100 99 77 82
100 100 100 100 100 100 100 100 100 100 100 100 100 100 100 98 100 100 100 100 100 100 100 100 100 66 88 80 98 78 99 91 96 89 93 94 89 100 93 80 100 98 84 75 85 99 95
100 100 100 100 100 100 100 100 100 100 100 100 100 100 100 100 100 100 100 100 100 100 100 99 92 94 90 99 84 97 74 72 100 88 51 84 86 54 79 76 50 61 78 79 80 68 65
100 100 100 100 100 100 100 100 100 100 100 100 100 100 100 100 100 100 100 100 97 100 92 91 89 68 60 55 91 75 84 75 76 92 86 83 83 78 83 91 100 100 88 78 68 65 60
88 96 95 100 100 100 100 100 100 100 100 100 100 100 100 100 96 99 92 100 97 92 76 85 79 71 81 62 55 61 54 45 70 56 69 73 82 81 75 90 82 75 71 59 63 60 59
86 86 80 80 84 93 97 100 100 100 96 92 100 100 100 86 89 92 85 90 94 99 79 76 73 70 83 69 72 84 79 67 70 85 75 65 72 81 73 70 64 64 60 62 71 65 64
92 81 73 81 79 89 91 84 81 90 92 84 85 92 78 88 84 83 86 82 83 84 76 69 74 83 87 85 81 80 80 82 74 60 73 78 78 72 63 64 72 87 98 95 85 66 64
47 48 62 67 58 57 59 67 73 79 87 98 85 75 75 77 74 76 78 84 83 87 91 83 80 88 86 80 82 78 88 86 89 90 84 78 81 84 85 74 84 88 96 100 72 48 43
22 19 20 20 26 31 33 36 38 44 51 69 56 47 53 61 59 57 61 70 76 89 90 81 70 77 67 66 69 74 83 100 99 89 90 93 92 81 86 86 77 84 77 51 44 50 40
8 9 10 10 11 11 13 16 18 22 25 23 22 21 24 26 28 32 39 38 44 48 44 53 53 46 46 54 81 94 100 100 100 100 99 95 87 89 95 81 55 41 53 44 41 38 29
4 4 5 6 6 7 8 9 10 12 13 15 19 18 16 15 14 14 14 17 21 24 28 26 26 35 49 44 65 74 84 86 95 99 98 91 80 83 77 41 28 45 38 29 28 32 25
4 4 4 4 4 5 5 5 6 7 9 11 13 15 13 13 12 12 12 12 14 16 17 21 19 22 23 30 33 49 56 89 81 86 69 77 88 59 33 29 38 40 27 24 28 35 34
3 3 3 3 4 4 4 4 5 5 7 8 9 9 10 10 11 10 12 13 13 14 15 18 18 20 23 25 28 28 33 40 55 64 54 51 43 29 30 30 38 31 24 32 38 45 58
3 3 3 3 3 3 4 4 4 5 5 7 7 7 7 9 8 10 12 12 13 15 16 18 18 19 19 20 23 27 34 38 52 48 38 30 31 34 30 28 46 27 35 42 49 55 50
3 3 3 3 3 3 3 4 5 5 6 7 7 7 8 9 8 11 12 15 16 17 17 17 16 18 20 22 26 28 34 37 37 29 31 34 34 30 27 36 56 33 48 53 42 45 47
2 2 2 3 3 3 3 4 4 5 6 7 8 9 9 9 10 11 14 17 18 17 17 16 18 18 21 24 26 24 29 28 32 36 32 34 32 35 31 36 46 65 55 42 47 44 60

GFSGBSN_250_rhum_165.txt.gz
RH
72 62 79 98 100 99 82 67 67 54 65 68 58 48 43 39 35 35 56 79 90 66 77 62 50 58 58 47 47 40 39 62 61 61 79 95 100 100 100 99 93 81 87 79 59 35 29
78 74 50 35 76 78 44 35 37 36 41 41 44 40 46 44 37 37 50 81 83 69 63 64 56 54 58 53 55 46 42 54 92 86 96 93 100 100 100 100 100 100 100 91 66 26 28
48 38 44 28 43 59 32 26 26 28 33 37 51 54 47 48 44 42 58 68 89 87 56 59 72 60 69 61 56 51 46 43 42 94 100 100 99 98 100 100 100 100 100 100 82 44 49
46 31 31 29 45 44 26 31 27 27 32 37 47 62 57 41 52 49 58 76 75 95 84 69 70 83 77 70 72 68 58 60 57 39 71 98 100 100 100 100 100 100 100 63 94 68 58
29 31 33 32 31 32 31 33 35 30 30 34 40 47 62 54 48 57 70 68 77 97 97 85 86 84 86 82 78 78 61 59 74 69 57 41 46 71 94 100 100 96 98 100 100 83 66
43 40 45 40 35 32 31 32 37 39 38 29 33 41 35 48 38 42 54 75 68 75 92 95 77 67 81 84 84 86 82 61 66 71 66 66 49 42 42 37 42 53 77 74 54 68 71
60 51 42 60 54 54 36 40 36 45 43 37 32 32 31 28 30 30 31 51 58 43 64 73 84 58 77 76 56 64 70 73 66 63 73 73 68 69 55 48 41 38 40 38 41 38 37
76 91 92 57 58 51 55 40 46 43 62 57 44 39 36 35 35 46 46 29 40 39 38 46 47 53 43 65 60 46 50 66 78 75 71 69 80 99 83 66 52 47 39 34 31 38 44
96 64 46 61 50 48 53 77 73 65 56 73 80 52 47 44 47 38 42 50 31 33 59 53 52 50 61 53 58 45 52 70 61 72 71 69 66 79 72 66 65 62 48 39 39 41 39
61 78 56 69 74 61 68 78 90 88 88 92 91 90 74 58 56 57 41 56 48 55 56 54 78 78 65 86 88 85 68 62 66 68 43 64 64 63 69 54 66 71 66 58 42 42 46
87 89 100 100 100 100 100 87 72 100 91 99 96 93 94 94 70 99 64 41 62 56 83 60 82 68 98 86 81 100 88 60 52 78 100 89 45 44 41 46 49 52 52 54 57 34 41
100 100 100 100 89 71 84 94 100 100 100 100 100 100 100 100 100 80 100 90 88 68 54 93 95 100 96 73 78 100 100 100 98 67 90 100 99 58 59 65 59 48 50 52 56 56 51
99 100 100 100 100 100 100 100 100 100 100 100 100 100 100 100 100 100 89 100 100 69 71 73 86 65 75 79 64 97 80 90 100 85 62 51 79 82 59 50 81 92 85 52 53 76 77
100 100 100 100 100 100 100 100 100 100 100 100 100 100 100 100 100 100 89 100 100 100 99 53 99 100 100 100 99 100 99 100 100 69 54 82 100 84 99 95 89 59 68 53 83 81 72
100 100 100 100 100 100 100 100 100 100 100 100 100 100 100 100 100 100 100 99 100 100 100 100 100 100 100 100 100 98 99 99 97 100 97 89 67 64 75 69 72 67 62 77 66 71 78
100 98 100 100 100 100 100 100 100 100 100 100 100 100 100 100 100 100 100 100 100 100 100 100 100 97 95 97 89 90 81 89 97 86 88 90 85 92 80 82 92 88 76 80 88 77 77
100 100 100 100 100 100 100 100 100 100 100 100 100 100 100 100 100 98 100 100 100 100 90 74 91 100 96 82 92 75 52 51 57 56 52 54 58 58 74 83 83 84 98 91 68 77 89
78 99 100 100 98 97 100 100 96 100 100 100 100 100 100 100 100 100 100 100 100 100 100 100 100 100 100 100 96 90 79 69 65 65 69 71 59 55 66 85 89 89 73 63 53 72 69
55 59 84 96 77 84 82 80 83 87 90 96 92 98 100 99 98 99 100 100 100 100 100 100 100 99 100 100 84 77 77 71 68 66 60 64 64 70 86 88 94 81 70 73 90 87 80
80 65 64 67 80 78 73 83 82 86 88 92 97 92 88 93 98 100 100 100 100 96 98 96 100 100 94 90 87 82 75 73 79 68 65 65 78 79 75 71 77 89 95 92 83 74 73
58 54 69 76 76 79 81 80 82 85 99 97 97 97 90 80 92 99 95 93 100 97 96 98 87 99 86 84 95 89 91 92 90 84 90 87 81 81 81 88 89 97 100 100 86 64 55
48 54 55 50 52 59 61 60 66 71 76 70 65 76 78 78 77 75 82 78 79 83 77 84 82 84 84 82 77 71 80 84 82 83 78 74 82 87 97 94 89 94 100 98 73 59 60
18 18 19 19 20 20 21 23 25 29 31 32 33 47 56 53 52 48 51 53 53 53 57 61 60 59 60 59 51 65 76 85 77 82 79 82 82 89 88 95 98 99 100 79 78 71 46
7 7 8 8 8 9 10 10 11 12 13 15 17 21 24 25 24 24 25 23 23 23 26 32 35 32 32 31 33 33 48 57 47 47 60 75 83 85 86 82 93 99 82 67 63 45 28
5 5 5 5 6 6 6 6 6 7 7 8 10 12 13 14 14 15 16 17 14 12 12 15 18 22 21 20 19 22 22 24 32 41 42 62 71 62 68 81 86 98 53 42 27 31 29
4 4 4 5 5 5 5 5 5 5 5 5 6 8 10 10 11 12 12 12 11 10 9 12 15 16 17 16 18 17 18 21 26 29 30 31 37 46 49 47 83 71 28 25 29 33 32
4 4 4 4 4 5 5 5 5 5 5 5 6 7 8 8 8 9 11 11 10 10 10 11 12 12 14 15 16 18 19 21 23 25 26 28 30 37 47 47 70 30 22 37 37 43 42
4 4 4 3 3 3 3 4 4 4 4 5 6 6 6 6 6 7 9 10 9 9 10 11 12 14 16 16 17 18 20 20 23 24 23 26 36 51 40 36 36 32 30 42 52 50 51
2 3 3 3 4 4 4 4 3 4 4 5 6 6 6 7 6 7 9 10 9 12 12 12 14 15 17 17 18 18 20 20 22 25 27 39 49 33 26 30 40 52 38 43 49 57 59